STARLINK-34560, 64700

Orbit data source: Space-Track

STARLINK-34560, 64700 is a payload satellite owned by SpaceX/Seattle (US) in LEO that was launched on Sat, 28 Jun 2025 UTC via an FALCON 9 launch vehicle from the Air Force Western Test Range (AFWTR). Payload-class satellites include a variety of spacecraft equipped with specific instruments for various scientific and technological missions. These include communications satellites like Starlink; space stations such as the ISS; scientific satellites like the Hubble; Earth observation satellites from companies like Planet Labs, Umbra, and HawkEye 360; GPS; miniature CubeSats for education and research; and military/defense satellites.

Loading next visibility...
Identifier
64700, 2025-142E
Orbit
LEO
Country
Flag of USUS
Related business
Manufacturer
SpaceX/Seattle
Mission
Operational Commercial Communications
Bus & Motor
STARLINK V2MO, Unknown motor
Mass
575 kg wet, ~530 kg dry
Launch date (UTC)
2025-06-28 (11 months ago)
Launch vehicle
FALCON 9
Launch site
Air Force Western Test Range (AFWTR)
Object type
Payload
Rocket body
Debris
Shape & HBR
Box + 2 Pan, 17.7 m
Radar Cross Section
36.964 m², Large (>1 m²)

Expand to show TLE details & history
Last TLE update: 9 hours ago

TLE from 9 hours ago
0 STARLINK-34560
1 64700U 25142E   26145.37969990  .00004190  00000-0  35868-3 0  9998
2 64700  70.0002 121.2471 0003982 265.9741  94.0963 14.98335639 50920
Epoch: 2026-05-25T09:06Z
TLE epoch observation values (Epoch: 2026-05-25T09:06:46.071Z)
Latitude
-0.00001°
Longitude
101.5868°
Altitude
574.661 km
Speed
7.574 km/s
True Right ascension
08h 04m 59s
True Declination
0° 00' 00"
Sunlit
Object was in daylight at epoch
Visualization orbit readout
Latitude
Unknown
Longitude
Unknown
Altitude
Unknown
Speed
Unknown
Apparent Right ascension
Unknown
Apparent Declination
Unknown
Sunlit
N/A
Visualization observer readout
Local Sidereal Time
03:10:11
Azimuth
Unknown
Elevation
Unknown
Doppler factor
Unknown
Orbital elements
Apogee altitude
572.753 km
Perigee altitude
567.22 km
Semi-major axis
6,948.124 km
Eccentricity
0.0004
Inclination
70.0002°
RAAN
121.2471°
Arg. of periapsis
265.9741°
True anomaly
94.14181°
Mean anomaly
94.0963°
Eccentric anomaly
94.11906°
Mean motion
3.7475 °/min
Orbital period
96.06 mins
BSTAR
0.00035868
Loading maneuver chart data...
Computing Atmospheric mass density...
Loading historical data...
Loading historical data...
Loading historical data...
Loading historical data...
Loading historical data...
Loading historical data...
Loading historical data...

Documentation

Showing up to 5 results
|